Theta_e
301 307 306 305 303 301 300 299 300 300 301 304 305 304 304 305 305 303 301 299 297 301 303 301 301 301 301 302 301 297 294 293 294 294 295 295 295 295 295 294 294 294 295 294 292 292 292 292 291 290 290 290 289 289 289 289 288 288 288 288 288 288 288 288 288 288 287 287 287 287 287 287 287 287 287 288 288 288 288 288 287 287 286 286 285 285
303 307 303 299 298 297 297 296 297 298 300 302 302 302 302 302 303 301 300 299 297 300 301 300 300 301 301 302 302 297 294 295 295 295 296 296 296 296 295 295 295 295 295 294 292 292 292 292 291 290 290 290 290 289 289 289 289 289 289 289 289 289 288 288 288 288 287 287 287 287 287 287 286 286 286 287 287 287 287 288 287 287 287 286 285 285
304 303 299 296 295 295 296 296 297 299 301 301 300 300 300 300 300 299 299 299 297 299 301 301 300 301 301 302 301 297 296 297 297 297 297 297 297 296 296 296 296 295 295 295 294 293 292 291 291 290 290 290 290 290 290 290 290 290 290 289 289 289 289 288 288 288 287 287 287 287 287 286 286 286 285 286 286 286 286 286 286 286 286 285 284 284
303 300 296 294 294 296 296 296 296 300 300 299 299 298 298 298 298 299 300 298 298 298 300 300 299 300 300 300 300 298 297 297 296 296 296 296 297 297 297 296 296 295 296 296 295 295 293 291 290 290 290 290 290 290 290 290 290 290 290 289 289 289 288 288 287 287 287 287 286 286 286 286 286 285 285 285 286 286 286 285 285 285 285 284 284 283
299 296 293 293 295 296 297 297 297 300 300 297 297 298 298 298 297 298 298 297 299 298 298 299 300 301 300 299 299 298 296 296 295 295 295 295 295 295 295 295 295 295 296 296 296 296 295 292 291 290 290 290 290 290 290 290 290 290 289 289 289 288 288 287 287 287 286 286 286 285 285 285 285 285 285 285 285 285 285 285 284 284 284 284 283 283
296 292 292 295 296 295 298 298 297 298 299 297 296 296 296 297 296 296 297 298 299 300 298 298 299 299 299 299 299 299 296 297 297 296 296 297 296 295 294 294 295 294 295 295 296 296 295 293 292 291 290 289 289 289 289 289 289 289 288 288 288 287 287 287 286 286 285 285 284 284 284 285 285 285 286 286 286 286 285 285 284 283 282 283 283 283
295 291 291 295 296 296 297 297 296 296 298 297 294 294 295 295 296 296 297 298 299 299 299 297 298 299 299 300 300 298 297 298 298 297 297 298 297 297 296 296 296 295 295 295 295 294 294 293 292 292 291 290 289 289 288 288 288 288 287 287 287 286 286 286 286 286 285 284 284 284 284 284 285 285 286 285 285 285 285 284 283 282 282 281 282 282
295 293 293 293 295 296 296 296 295 294 296 296 293 292 295 295 296 297 297 299 299 299 298 298 298 298 300 300 298 295 297 298 298 298 298 298 298 297 297 297 297 297 296 295 295 294 294 293 292 292 291 290 289 288 287 287 287 287 287 287 286 286 286 286 286 285 285 284 284 284 284 284 284 284 284 284 284 284 284 283 283 282 282 281 281 281
294 296 295 293 294 295 296 296 294 294 295 295 293 293 295 295 297 297 298 300 298 298 299 298 296 297 299 300 296 295 297 298 299 299 299 299 298 298 298 297 297 296 295 294 294 295 294 292 292 291 289 288 288 288 287 287 287 287 287 287 286 286 286 285 285 285 284 284 283 283 283 283 284 284 284 284 283 283 283 283 283 282 282 281 280 280
294 296 294 293 295 296 295 294 293 294 294 294 292 293 294 294 296 297 298 300 298 297 299 297 295 296 298 299 298 297 297 298 298 299 299 299 298 297 297 296 295 294 294 294 294 294 293 291 290 289 288 287 287 287 287 287 287 287 286 286 286 285 285 285 285 284 284 283 283 283 283 283 283 283 283 283 283 283 283 283 283 282 282 282 281 280
294 295 294 295 296 295 294 292 291 292 293 293 294 294 294 295 296 296 297 298 298 298 297 295 293 295 296 298 299 297 298 299 298 298 298 297 296 295 295 295 294 294 293 293 293 292 291 289 288 287 287 287 287 287 287 286 286 286 286 286 285 285 284 284 284 284 284 283 283 283 283 283 283 283 283 283 283 283 283 283 283 282 282 282 281 280
294 296 297 296 294 293 293 293 291 290 291 293 295 296 295 295 295 295 295 295 296 297 296 292 292 293 295 298 298 298 298 298 298 298 298 297 297 295 295 295 294 293 292 292 291 291 289 288 287 287 287 287 286 286 286 286 285 285 285 285 284 283 283 283 282 282 282 282 282 282 282 282 282 282 282 282 282 282 282 282 282 282 282 282 282 281
296 296 295 293 293 293 294 295 293 291 292 293 295 295 295 295 295 295 295 295 295 296 293 291 292 292 295 297 298 297 297 296 297 298 298 298 297 296 296 295 293 292 292 291 291 290 289 288 288 287 287 287 286 285 285 284 284 283 283 283 282 281 280 280 280 280 280 280 281 281 281 281 281 281 282 282 282 282 282 282 282 282 282 282 282 281
297 296 294 294 295 292 293 295 295 294 294 294 295 295 295 295 294 294 295 294 295 295 291 289 291 293 296 298 298 298 297 297 297 297 297 297 296 296 295 293 292 291 290 290 289 289 288 288 288 287 287 286 285 284 283 283 282 282 281 280 280 279 278 278 278 278 278 278 278 278 279 279 279 280 280 280 281 281 281 281 281 281 281 281 281 281
297 298 295 295 295 293 293 293 293 294 295 294 293 293 295 295 294 295 296 295 296 296 292 291 293 296 298 297 296 296 295 295 294 293 293 294 294 294 293 291 291 290 289 289 288 287 288 287 287 286 286 285 284 283 282 281 281 280 279 278 278 277 277 277 276 276 276 276 276 276 276 277 277 277 278 278 279 279 280 280 280 280 280 280 280 280
297 297 295 294 293 292 294 292 291 293 295 293 291 293 295 295 295 295 292 292 293 294 294 294 295 298 299 297 295 295 294 293 293 291 291 292 292 291 291 292 292 290 288 287 287 287 287 287 286 285 284 283 283 282 281 280 279 278 278 277 277 276 276 276 275 275 275 275 275 275 275 275 275 275 275 276 276 277 277 278 279 279 279 279 279 279
297 297 294 293 294 292 294 293 291 293 295 293 293 295 293 292 294 294 291 290 291 294 296 295 296 298 298 298 297 294 294 293 292 291 291 292 292 291 292 293 292 290 288 287 287 287 287 286 285 284 283 283 282 281 280 278 278 277 277 276 276 276 275 275 275 274 274 274 274 274 274 274 274 274 274 274 275 275 276 276 277 278 279 279 279 278
296 297 295 293 296 293 291 293 292 291 292 294 295 294 292 291 294 294 293 293 293 295 296 295 296 298 297 298 297 294 294 294 293 292 291 291 292 292 293 293 291 289 287 287 287 287 286 285 284 283 282 281 281 280 278 277 276 276 276 276 276 275 275 274 274 274 274 274 273 273 273 273 273 273 273 273 274 274 275 276 277 277 278 278 278 277
294 297 296 292 295 294 291 294 295 292 290 292 293 292 292 294 295 294 294 295 295 295 295 294 294 295 296 298 298 296 296 295 294 292 291 291 292 293 293 292 289 287 286 286 286 286 286 285 284 283 281 280 279 278 277 276 276 275 275 275 275 274 274 274 273 273 273 273 273 273 273 273 273 273 273 273 273 274 274 274 275 276 276 276 275 275
292 295 296 293 293 294 294 296 298 296 291 290 291 291 292 294 295 294 293 293 294 295 295 295 294 295 297 298 298 299 299 298 296 295 293 293 293 294 293 291 289 287 287 287 286 286 286 285 283 282 281 280 279 278 277 276 275 275 275 275 274 274 274 273 273 273 273 273 272 272 272 272 272 272 272 273 273 273 273 273 273 274 274 274 274 273
293 293 296 295 293 293 296 297 298 298 296 293 293 294 293 292 292 293 292 292 294 294 294 294 295 297 298 298 298 299 301 301 299 298 297 294 293 293 292 291 289 288 288 287 286 286 285 284 282 281 280 279 278 277 276 276 275 275 274 274 274 274 273 273 273 273 273 272 272 272 272 272 272 272 272 272 272 272 272 272 272 272 272 272 272 272
293 293 295 295 295 296 297 295 293 294 294 295 296 296 295 294 293 294 294 292 292 293 293 293 294 297 299 299 298 298 300 302 301 299 298 294 293 292 292 291 290 289 289 287 286 286 285 283 282 280 279 278 278 277 276 275 275 274 274 274 274 274 273 273 273 272 272 272 272 272 271 271 271 272 272 272 272 272 272 272 272 272 271 271 271 271
293 293 294 295 296 296 293 290 289 289 290 292 294 294 295 295 294 295 295 293 291 291 291 291 292 296 297 298 298 297 298 299 297 296 296 294 292 292 291 291 290 289 289 287 286 286 284 283 281 280 279 278 278 277 276 275 275 274 274 273 273 273 273 272 272 272 272 272 272 271 271 271 271 271 271 272 272 272 271 271 272 272 272 271 271 271
293 294 294 296 297 294 289 288 289 288 289 292 293 292 293 294 296 296 294 292 292 292 292 291 293 296 295 292 293 294 293 293 291 291 293 293 292 292 291 290 290 289 288 287 286 285 283 282 281 280 279 278 278 277 276 275 275 274 274 273 273 273 273 272 272 272 271 271 271 271 270 270 270 270 270 271 271 271 271 271 271 271 271 271 271 271
294 295 294 296 298 296 294 294 293 291 291 294 294 291 291 294 296 294 291 291 292 294 294 293 294 297 294 289 290 291 290 291 291 290 291 292 292 292 291 290 289 288 287 286 285 284 283 282 281 280 279 279 278 277 276 275 274 274 273 273 272 273 273 272 271 271 271 271 270 270 270 270 269 269 270 270 270 269 270 270 270 270 271 271 271 271
293 295 294 296 298 298 299 300 297 295 294 293 293 292 291 293 295 295 293 292 293 295 295 294 295 297 296 291 291 291 290 292 292 290 290 291 292 292 291 290 289 288 287 285 284 283 282 282 281 280 279 278 278 277 276 275 274 273 273 272 272 272 272 272 271 271 270 270 270 269 269 269 269 269 269 268 268 268 269 269 269 269 270 270 270 270
292 293 293 295 297 298 299 298 294 292 293 293 294 295 293 292 293 294 293 293 294 293 294 295 296 297 297 295 294 294 292 293 293 292 291 291 291 291 290 290 289 288 287 286 284 283 282 282 281 280 279 278 277 276 275 274 274 273 272 272 271 272 272 272 271 270 270 270 269 269 269 269 269 268 268 268 267 268 268 268 268 268 269 269 269 269
293 293 293 295 296 296 297 296 292 291 292 292 294 296 295 292 292 293 294 295 295 294 294 296 297 297 297 296 296 296 294 294 294 293 293 292 292 291 290 289 288 288 287 285 284 283 282 281 281 280 279 278 277 276 275 274 273 272 272 271 271 271 272 271 271 270 270 269 269 269 268 268 268 267 267 267 267 267 267 267 267 267 267 268 268 268
293 294 294 294 294 294 293 293 292 291 291 292 293 293 294 293 293 294 294 294 295 294 295 296 297 297 297 296 296 296 295 294 294 294 294 293 292 291 290 289 288 288 287 285 284 283 282 282 281 280 279 277 277 276 274 273 273 272 271 271 271 271 271 271 270 270 269 269 269 268 268 268 267 267 267 267 267 267 267 266 266 266 266 266 267 267
292 295 295 292 293 294 293 292 292 291 292 292 292 292 292 293 293 293 294 293 293 294 294 294 295 295 295 295 296 296 295 294 293 293 293 292 292 291 290 289 288 288 287 286 285 283 282 282 281 280 278 277 276 275 274 273 272 272 271 271 271 271 271 270 270 269 269 268 268 268 267 267 267 267 266 266 266 266 266 266 266 266 266 266 266 266
291 295 296 291 292 294 293 291 290 290 291 291 292 292 292 292 292 292 292 292 292 293 293 293 294 294 294 295 294 294 294 293 293 292 292 292 291 291 290 289 289 288 287 286 285 283 282 282 281 280 278 277 276 275 274 273 272 271 271 270 270 270 270 269 269 269 268 268 268 267 267 267 267 266 266 266 266 266 266 265 265 265 265 265 265 265
289 292 292 290 293 296 292 290 291 291 291 293 295 295 293 292 292 292 292 292 292 293 294 293 293 294 294 294 294 294 293 293 292 292 292 292 291 290 290 289 288 288 287 286 285 283 282 281 280 279 278 277 276 274 273 272 271 271 270 270 270 269 269 268 268 268 267 267 267 267 267 266 266 266 266 265 265 265 265 265 265 265 265 265 265 265
289 291 291 290 295 296 291 289 292 293 295 299 300 300 298 296 294 293 292 292 291 292 294 294 294 295 295 295 294 294 293 292 292 292 292 292 291 289 289 289 289 288 287 286 284 283 282 281 280 279 277 276 275 273 272 272 271 270 270 269 269 268 268 267 267 267 267 267 267 266 266 266 266 265 265 265 265 265 265 265 264 264 264 264 264 264
288 291 291 290 294 296 291 290 294 295 299 300 296 296 298 297 295 295 294 293 292 292 292 294 295 295 295 294 294 294 293 293 292 292 292 292 290 289 289 288 288 288 287 286 284 283 282 281 280 278 277 276 274 273 272 271 270 270 269 269 268 267 267 267 266 266 266 266 266 266 266 265 265 265 265 265 265 264 264 264 264 264 264 264 264 264
289 290 290 289 291 294 292 292 296 300 301 298 294 293 294 294 293 294 294 294 293 292 292 293 293 293 294 294 293 293 293 292 291 290 290 290 290 289 289 288 288 287 286 285 283 282 282 281 279 277 276 275 273 272 271 270 270 269 268 268 267 267 266 266 266 266 265 266 265 265 265 265 265 265 264 264 264 264 264 264 263 263 263 263 263 263
290 290 290 289 290 293 293 294 298 300 298 296 295 293 291 291 291 292 294 294 293 293 292 292 292 293 293 293 293 293 291 290 288 289 289 288 288 288 288 288 288 287 286 284 283 282 281 279 278 277 275 274 273 271 270 270 269 268 268 267 267 266 266 266 265 265 265 265 265 265 265 264 264 264 264 264 263 263 263 263 263 263 263 263 263 262
291 291 291 292 292 293 293 294 296 298 297 297 296 292 290 292 291 292 294 295 294 293 293 292 292 293 293 293 293 292 289 288 289 290 290 288 287 287 288 288 287 286 285 284 282 281 280 278 277 276 274 273 272 271 270 269 269 268 267 267 266 266 266 265 265 265 265 264 264 264 264 264 263 263 263 263 263 263 263 263 263 263 262 262 262 262
289 291 292 295 294 291 291 293 295 297 299 298 294 290 290 291 290 291 294 295 295 295 294 293 293 293 293 294 292 289 288 290 292 293 292 290 287 287 286 285 285 284 283 282 280 279 278 277 276 275 274 273 271 270 270 269 268 268 267 266 266 265 265 264 264 264 264 264 264 264 264 263 263 263 263 263 263 263 263 262 262 262 262 262 261 261
288 290 291 293 293 290 290 293 295 297 299 296 292 290 290 289 289 291 294 297 297 295 294 293 293 294 294 293 290 289 290 292 294 294 293 290 287 286 284 283 282 282 281 280 279 277 276 275 275 273 272 271 270 270 269 269 268 267 266 266 266 265 264 264 265 265 264 264 264 264 263 263 263 263 263 262 262 262 262 262 262 261 261 261 261 261
289 291 291 292 294 292 291 293 294 296 296 294 291 291 290 288 289 292 296 298 296 294 293 292 293 294 294 292 290 289 291 293 294 293 290 287 285 284 283 281 280 280 279 277 277 276 275 274 273 272 271 270 270 270 269 268 267 266 266 266 265 265 265 265 265 265 264 264 263 263 263 263 263 262 262 262 262 262 262 261 261 261 261 261 260 260
290 291 291 292 294 293 292 294 294 295 296 294 292 290 288 289 291 294 297 297 295 294 293 292 293 294 293 291 290 291 292 293 292 289 285 283 283 282 282 281 280 279 277 276 275 275 274 273 272 272 271 271 270 269 269 268 267 266 266 265 265 265 265 266 265 264 263 263 263 263 263 262 262 262 262 262 261 261 261 261 261 261 260 260 260 260
293 291 291 291 292 293 293 294 294 295 295 293 292 290 288 291 294 296 296 295 294 293 293 291 292 292 292 291 291 292 292 292 289 285 283 282 282 281 280 279 278 277 275 274 274 274 273 271 271 271 271 270 270 269 268 267 266 266 266 265 265 266 266 265 264 263 263 262 262 262 262 262 262 262 261 261 261 261 261 261 261 260 260 260 259 259
295 295 293 291 291 293 292 292 295 297 295 291 291 291 290 292 296 296 294 293 292 292 291 290 291 291 290 291 291 291 291 290 287 284 283 282 281 280 279 278 277 276 274 273 273 272 272 271 270 270 270 269 269 268 267 266 266 266 265 265 265 266 265 264 263 263 262 262 262 262 262 262 262 261 261 261 261 261 261 261 260 260 260 259 259 259
295 297 296 293 293 293 293 293 297 297 293 290 291 293 292 293 295 294 292 292 292 291 291 290 290 290 290 290 290 290 290 289 287 284 282 281 281 279 278 278 277 275 274 273 272 272 271 270 269 269 269 269 268 267 267 266 266 265 264 265 266 265 264 263 263 262 262 262 263 262 262 262 261 261 261 261 260 260 260 260 260 260 259 259 258 258
295 295 295 294 293 294 294 295 295 294 293 291 291 292 292 292 293 292 291 290 290 291 290 290 290 290 290 289 289 288 288 288 287 285 283 282 280 279 278 277 276 275 274 273 272 271 271 270 269 269 268 268 267 267 266 266 265 264 264 265 265 264 263 263 262 262 262 262 262 262 262 262 261 261 261 261 260 260 260 259 259 259 259 258 258 257
292 291 291 292 293 294 293 294 293 293 293 293 292 292 292 292 292 291 290 290 290 290 290 290 290 290 289 288 288 288 288 288 287 286 284 282 280 279 278 277 276 274 273 272 271 270 270 270 269 268 268 267 267 266 266 265 265 264 265 265 264 264 263 262 262 261 262 262 262 262 262 261 261 261 261 261 260 260 259 259 258 258 258 258 258 257
291 290 292 293 293 293 293 294 293 293 292 292 292 293 292 292 292 291 290 290 290 290 290 289 289 288 288 287 287 288 288 287 287 285 284 282 281 279 278 277 275 274 272 272 271 270 269 269 268 267 267 267 266 266 266 265 265 264 265 264 264 263 262 262 261 261 261 262 262 261 261 261 261 261 261 260 260 259 258 258 258 257 258 258 258 258
291 292 292 292 292 292 292 293 292 291 291 291 291 292 291 291 291 291 290 290 289 289 289 288 288 287 287 286 287 287 287 287 286 285 284 282 280 279 277 276 275 273 272 272 271 270 269 268 268 267 267 266 266 266 266 265 265 264 264 263 263 263 262 261 261 261 261 261 261 261 261 261 261 261 260 260 259 258 258 258 257 257 257 258 258 258
291 292 291 291 291 291 291 292 291 290 290 290 290 290 290 290 290 289 289 289 288 288 288 288 287 287 286 286 286 286 286 286 285 285 284 282 280 279 277 276 274 273 272 271 270 270 269 268 268 267 267 267 267 266 266 265 265 264 264 263 263 262 262 261 261 261 261 261 261 260 261 261 261 260 259 259 259 258 259 259 259 258 257 258 259 259
290 290 290 290 290 290 290 290 290 289 289 289 289 289 289 289 289 289 289 288 288 288 288 287 287 286 285 284 284 285 285 285 284 283 283 282 280 278 276 275 273 272 271 271 270 269 269 269 268 268 267 267 266 266 266 265 265 264 264 263 263 262 262 262 261 261 261 261 260 261 261 260 260 259 259 258 258 258 258 259 260 259 259 258 259 259
290 289 289 289 290 290 289 289 289 288 288 288 288 288 288 288 288 288 288 287 287 287 287 286 286 286 285 284 283 283 284 284 283 281 281 280 278 277 276 274 273 272 271 270 269 268 268 268 268 267 267 267 266 266 265 265 265 265 264 263 263 262 262 262 261 260 260 260 261 261 261 260 259 259 258 258 258 257 257 258 259 259 260 260 259 259
Wind_Speed
2 2 3 2 2 3 3 3 2 2 2 2 2 1 0 2 1 1 1 2 2 4 5 4 6 9 10 10 7 9 10 10 11 10 9 9 8 8 8 8 8 9 8 6 8 13 14 15 17 19 20 20 20 20 20 20 19 19 19 20 20 20 21 21 21 22 22 21 20 19 20 21 21 22 24 26 26 27 27 27 27 26 26 26 27 26
2 3 4 3 3 3 3 1 0 0 1 1 1 0 1 2 1 1 1 1 1 3 3 1 7 11 12 12 6 9 10 12 13 13 12 12 11 9 9 10 9 8 7 6 10 12 14 15 16 17 18 19 19 19 19 19 19 19 19 19 20 20 21 22 22 22 23 23 22 20 19 18 17 17 20 22 23 26 28 28 28 28 28 28 28 28
2 4 3 3 2 1 2 1 1 0 1 1 1 1 1 0 2 2 2 1 1 3 3 2 8 12 14 13 8 10 11 11 12 13 12 12 11 10 10 10 9 8 8 8 10 11 12 14 15 16 18 19 19 19 19 19 19 19 19 20 19 20 21 22 23 23 24 25 25 25 23 21 20 20 21 23 25 27 29 30 30 30 29 29 29 29
3 3 2 2 1 1 3 2 1 1 1 1 0 1 1 0 2 2 2 1 1 2 4 7 9 12 12 10 7 8 10 8 7 9 9 9 10 10 9 8 8 9 10 9 10 10 10 10 11 14 16 17 19 20 21 21 21 21 21 21 20 21 22 22 23 24 24 25 26 28 28 28 28 27 27 30 32 32 32 32 31 31 30 28 28 28
5 3 2 1 2 1 1 2 1 2 1 1 1 1 1 1 2 3 1 2 3 3 3 8 9 8 4 3 4 4 5 8 7 7 9 9 10 9 7 7 9 10 9 9 9 8 8 8 8 9 11 13 15 17 19 19 20 20 19 19 19 19 20 20 21 21 21 23 23 23 23 24 25 25 25 26 26 25 24 24 23 24 26 26 25 25
5 3 1 2 3 2 2 1 0 2 2 2 1 1 1 2 3 5 4 4 4 3 1 5 7 3 3 2 4 3 4 8 8 9 12 11 10 8 8 10 10 10 9 9 9 6 6 7 7 7 8 10 11 12 12 12 13 13 12 13 13 13 14 15 15 16 17 18 18 16 15 15 15 16 15 15 15 15 14 14 13 15 20 25 26 25
3 3 2 2 4 4 3 1 0 2 3 2 1 1 1 2 4 5 4 3 4 2 1 1 5 5 2 4 5 1 3 7 7 9 12 10 9 9 9 10 9 9 9 8 8 7 7 7 6 7 8 9 8 7 7 6 5 5 5 6 7 8 9 9 10 12 13 13 13 13 13 14 14 15 14 14 15 14 14 14 14 15 17 21 24 25
2 3 2 2 4 4 3 2 1 2 3 1 2 2 2 4 5 4 3 4 3 4 1 1 1 6 6 4 1 0 4 7 8 11 12 11 11 11 11 11 10 9 8 6 6 6 7 7 7 6 6 5 5 4 4 3 3 3 3 3 3 4 4 5 7 8 9 10 10 11 12 13 13 14 15 15 15 15 15 15 15 16 15 16 19 21
0 1 2 2 3 3 1 3 2 3 2 2 1 2 2 2 2 2 3 3 1 4 4 2 1 5 7 2 3 1 4 7 9 11 12 11 11 11 11 10 9 8 6 6 5 5 6 6 5 4 4 3 4 5 5 5 4 4 3 3 2 0 2 3 4 5 6 7 8 9 10 11 12 13 13 13 13 13 13 14 14 14 14 14 15 17
0 1 1 2 1 1 2 4 1 2 1 2 3 2 2 1 1 0 2 1 0 4 3 2 1 5 7 4 4 3 3 6 6 6 6 6 6 7 7 7 7 6 5 5 5 5 5 5 5 6 5 5 7 8 7 7 7 6 5 5 4 3 1 1 2 2 3 5 6 8 9 11 12 12 12 12 12 12 12 13 13 12 13 12 12 13
1 1 0 2 1 1 3 4 2 2 2 4 3 2 3 2 1 1 0 1 2 4 1 2 1 3 5 4 3 3 2 3 4 3 3 4 5 5 6 6 6 6 5 5 6 6 6 7 8 9 9 9 9 9 9 9 8 8 7 7 7 6 5 4 3 2 2 3 4 6 8 10 11 12 12 12 12 12 12 12 12 12 12 11 12 12
2 2 2 1 1 1 3 3 2 2 3 3 2 2 2 2 1 2 1 1 3 3 2 2 1 4 6 4 2 2 2 3 4 5 6 8 8 6 6 6 6 6 6 6 6 7 8 9 9 10 9 10 10 10 10 10 10 10 10 9 9 8 7 6 5 5 4 3 3 5 7 9 10 11 11 12 12 12 12 12 12 12 12 12 11 11
3 2 2 2 1 2 3 3 2 2 3 2 2 2 3 2 1 2 2 1 3 2 2 2 2 4 9 8 6 7 7 7 6 4 4 7 9 9 7 6 5 4 5 6 6 6 7 8 9 10 10 10 10 10 10 10 10 10 10 9 8 8 7 6 6 6 6 5 5 6 7 8 9 10 11 12 12 12 12 12 12 12 12 12 11 11
2 2 3 3 2 2 4 3 1 2 3 3 2 1 3 2 2 3 2 2 4 1 2 2 2 5 9 8 9 12 9 7 7 4 2 5 8 9 7 5 4 4 4 5 6 5 6 8 9 10 10 10 10 10 10 9 9 9 8 8 7 7 6 7 7 7 6 6 6 7 7 8 9 9 10 11 12 12 12 12 13 13 12 13 12 12
2 1 3 3 2 3 4 2 2 1 2 2 0 1 3 2 3 4 3 3 4 3 1 3 1 5 5 1 3 5 2 3 4 3 3 4 5 4 4 4 4 5 5 5 5 6 7 9 10 10 10 10 10 9 9 8 8 8 7 7 6 6 6 7 7 7 7 6 6 7 7 7 8 8 9 10 10 11 12 12 13 13 13 13 12 13
3 2 2 2 1 2 3 1 0 0 2 1 1 1 2 1 2 1 1 1 2 4 3 4 4 6 5 4 4 3 2 4 5 4 5 6 5 4 3 5 6 6 6 6 6 6 8 10 10 10 10 10 9 9 8 8 7 7 7 6 6 6 6 7 7 6 6 6 6 6 7 7 7 8 8 9 9 10 11 12 13 13 12 12 12 12
2 1 3 3 1 1 1 1 1 2 1 2 2 2 0 2 1 1 0 1 1 4 4 3 6 7 6 8 4 4 3 6 5 5 7 8 7 6 6 7 7 6 6 6 6 7 9 10 10 10 10 9 9 8 8 8 7 7 6 6 5 5 5 6 6 5 5 5 5 6 7 8 8 8 8 8 9 11 11 11 11 11 11 11 11 11
2 2 2 2 2 3 1 1 1 1 2 1 2 1 3 0 1 0 2 1 2 5 3 3 8 8 6 6 1 5 3 5 6 5 6 8 8 7 8 7 7 7 6 7 7 8 10 11 10 10 9 9 9 9 9 8 7 6 5 5 4 4 4 4 4 4 4 4 4 5 7 8 8 9 9 9 9 10 9 9 9 9 9 9 9 9
1 3 1 1 0 3 1 3 2 2 0 2 1 2 1 2 2 1 2 3 3 5 4 3 5 7 8 7 4 4 6 7 8 6 6 9 9 8 8 9 8 7 7 7 8 8 10 11 11 11 10 10 10 9 9 7 6 5 5 4 4 3 3 3 3 3 3 3 4 5 6 7 7 8 9 9 9 9 8 8 8 7 7 6 5 5
1 3 0 1 1 1 2 4 4 3 3 1 1 2 0 2 3 1 0 2 3 4 5 2 2 6 9 8 7 8 9 9 9 7 7 10 10 9 9 8 8 8 8 8 8 8 10 12 11 11 11 11 10 9 8 7 6 5 4 4 3 2 2 2 2 2 2 2 3 4 5 5 7 7 8 8 8 8 8 8 8 7 6 5 4 4
2 2 2 1 1 2 3 4 4 3 4 4 4 4 3 1 1 2 1 1 2 4 5 3 5 10 6 6 8 9 9 9 9 8 8 9 9 9 9 9 8 8 9 9 9 9 11 12 12 12 12 11 10 9 8 7 5 4 4 3 2 2 1 0 1 1 1 1 2 3 4 5 6 7 7 7 7 8 8 8 8 7 6 5 4 3
2 2 3 1 3 5 3 2 2 2 1 2 4 5 5 4 2 3 4 1 1 3 4 2 7 11 4 5 7 8 8 7 8 9 8 8 10 10 9 10 10 9 10 10 10 10 12 13 13 13 12 10 9 8 7 6 5 4 3 2 2 2 1 1 1 1 1 1 2 3 3 4 5 6 7 7 7 7 8 7 7 7 6 5 5 4
0 1 3 5 6 4 2 4 2 2 1 1 2 2 3 4 4 6 5 2 2 2 1 1 6 10 2 5 4 5 5 4 4 6 7 8 11 11 9 10 10 9 10 10 10 11 13 14 13 12 11 10 9 8 7 6 4 3 2 2 3 3 2 2 1 1 1 1 2 3 3 4 5 6 6 6 6 7 7 7 7 6 6 6 6 5
1 2 3 6 6 1 4 3 3 2 0 2 3 3 4 3 2 3 2 0 1 4 3 2 6 9 2 2 1 1 1 2 2 5 7 8 9 10 10 9 9 9 10 10 10 11 13 13 13 12 11 10 9 8 7 5 4 3 2 2 3 4 3 2 2 2 2 2 2 2 3 4 5 6 6 6 6 7 8 8 7 7 6 5 5 4
3 2 2 4 6 2 1 1 2 1 2 4 4 4 5 3 5 2 1 1 3 8 10 6 10 10 1 2 1 1 2 4 4 5 6 7 9 9 9 8 9 10 10 11 11 11 12 12 12 11 11 10 9 8 7 5 4 4 3 3 4 5 5 3 3 2 2 2 2 2 4 5 6 6 6 6 7 8 9 9 8 8 8 7 5 4
2 2 3 4 5 5 5 3 1 0 2 3 3 5 6 6 7 3 2 3 6 7 10 9 12 10 1 3 3 3 4 6 5 5 6 7 8 8 8 8 9 10 11 12 12 11 11 11 12 12 11 10 10 8 7 6 5 4 4 4 5 6 6 5 3 3 3 3 2 3 4 5 5 6 6 6 7 8 8 8 8 8 7 6 6 6
1 2 5 8 9 9 8 3 2 1 3 6 5 6 7 7 7 3 1 6 7 2 6 14 16 15 14 8 7 6 7 7 7 7 8 9 9 8 9 9 9 9 10 11 11 11 11 11 12 12 12 11 10 9 8 7 6 5 4 5 6 6 7 6 5 4 4 4 3 4 5 5 5 6 6 7 8 9 9 8 7 7 6 6 6 6
1 3 6 10 14 15 12 7 1 1 9 13 11 8 9 9 7 7 10 12 4 2 12 18 12 13 21 18 12 11 10 9 9 10 10 11 10 9 8 9 9 9 10 10 11 12 12 11 12 13 13 11 11 10 9 7 7 6 6 6 6 7 7 7 6 5 5 5 5 5 5 5 6 8 9 9 9 9 9 8 7 7 7 7 7 6
2 5 2 4 12 15 12 11 8 8 12 14 14 13 10 11 12 14 20 17 7 7 19 19 9 12 19 18 15 13 8 8 10 11 10 10 9 9 9 9 10 11 11 12 13 13 13 12 12 13 13 12 12 12 10 9 8 8 7 7 7 7 7 7 7 7 7 6 6 6 6 7 9 10 10 10 10 9 9 8 7 8 8 8 8 8
3 4 1 2 10 14 11 10 11 11 12 13 15 16 13 14 16 18 20 19 15 18 24 24 22 21 21 21 21 15 6 5 8 9 10 11 10 10 10 11 12 12 13 14 14 13 13 12 13 14 14 14 14 13 11 10 9 9 8 8 8 8 8 8 7 8 8 8 7 8 10 11 11 11 11 11 10 9 9 9 9 11 10 10 11 12
3 2 2 3 7 10 5 3 5 7 9 13 17 16 15 17 18 18 17 16 15 20 25 24 22 21 20 20 19 15 10 7 9 11 12 13 12 11 12 12 12 13 13 13 13 13 12 12 13 15 15 15 15 14 12 11 10 10 9 8 9 9 8 8 8 9 9 10 11 11 12 12 12 12 11 11 10 10 11 11 12 13 13 13 14 14
4 3 1 2 5 6 2 3 2 6 9 14 19 18 17 16 14 14 14 13 14 17 19 15 12 14 16 12 9 10 10 9 11 12 11 10 10 11 13 13 13 13 13 13 12 13 13 13 14 15 16 15 15 14 13 11 11 10 9 9 10 9 9 9 10 11 12 12 13 13 13 13 13 12 12 11 11 12 13 14 14 15 15 16 16 16
4 3 2 2 4 4 2 2 4 7 9 12 11 10 12 13 13 12 11 12 15 14 10 8 10 12 10 6 7 9 8 8 9 9 8 8 8 11 12 13 12 12 12 12 12 13 13 13 14 16 16 15 15 15 14 12 11 11 10 10 10 10 11 12 13 13 13 14 14 14 14 13 13 13 13 13 13 14 14 15 16 16 16 17 18 18
3 3 2 2 4 3 2 5 7 7 8 6 1 1 4 7 11 13 11 12 14 12 10 11 12 12 11 10 11 11 9 8 7 7 8 7 7 9 11 12 11 10 10 11 11 12 13 14 14 15 15 15 15 14 13 12 12 11 10 10 11 11 13 13 13 14 14 14 15 15 14 14 14 15 15 14 14 15 16 16 16 17 17 18 18 19
6 4 2 2 3 4 3 6 7 6 5 2 2 3 5 5 8 11 12 13 14 14 16 17 16 16 16 15 12 11 11 8 6 8 9 8 7 8 9 10 10 9 9 9 10 11 13 14 14 14 14 14 15 15 14 13 13 12 12 13 13 13 14 14 13 14 15 15 15 15 15 15 15 16 16 15 15 16 17 18 18 18 17 17 18 19
6 5 2 2 2 3 2 1 5 5 8 9 6 1 2 2 3 5 11 13 13 14 15 16 18 18 16 16 14 9 6 5 5 9 10 9 9 9 9 9 9 9 9 10 11 13 14 16 16 16 16 16 17 17 16 15 16 15 15 15 15 14 14 14 14 15 15 16 16 16 16 16 16 17 17 17 17 18 19 18 19 19 18 18 19 19
6 5 3 3 4 3 3 5 5 10 13 8 2 2 2 1 3 1 6 7 9 12 12 12 15 15 14 16 13 3 2 3 6 8 10 11 11 10 9 7 6 7 8 10 12 13 15 17 18 18 18 19 19 19 18 17 17 17 17 16 15 14 14 14 16 16 17 17 17 17 17 17 17 18 18 18 18 19 20 19 20 19 18 19 20 20
4 3 3 4 4 2 3 5 5 7 7 1 2 1 1 2 2 3 5 6 7 11 11 10 12 13 13 12 6 2 1 4 8 7 5 8 10 9 7 4 5 7 9 11 12 12 15 18 20 20 20 20 19 19 19 18 18 18 17 17 16 15 15 16 17 18 17 18 17 17 18 17 17 18 18 19 19 19 20 20 20 20 19 20 21 22
3 2 1 4 4 2 3 4 3 6 5 1 2 1 2 1 1 1 6 7 3 6 8 9 11 12 11 8 3 4 2 6 9 7 2 7 7 8 8 6 6 8 10 12 15 17 18 20 20 19 19 20 19 19 19 18 18 18 18 17 16 15 16 18 19 19 18 18 18 18 18 17 18 18 19 20 20 19 20 20 19 19 18 19 20 21
3 2 4 7 7 4 4 4 4 6 5 1 1 2 2 1 1 3 8 5 2 1 5 7 9 10 8 5 4 5 5 8 9 6 2 6 5 7 8 8 10 11 11 12 15 19 21 21 21 21 20 21 20 19 18 18 18 19 19 17 16 17 19 20 19 18 18 19 18 18 18 17 17 18 19 19 19 19 19 19 19 19 19 19 18 17
3 3 5 8 8 6 6 7 6 6 6 5 2 4 4 1 1 4 7 5 4 3 3 5 8 9 6 5 4 5 7 7 4 2 4 6 5 6 7 8 10 11 12 15 17 20 21 22 22 22 21 21 19 18 18 19 19 20 20 18 18 20 21 19 17 17 19 19 19 18 18 16 16 17 17 17 18 18 19 19 20 20 20 21 20 18
3 3 3 5 6 6 7 7 7 7 6 3 2 5 3 3 4 4 4 3 4 6 4 5 7 7 5 6 6 7 7 3 1 2 4 6 6 7 8 9 9 9 11 15 18 20 21 21 22 21 20 19 18 18 19 20 21 21 20 20 21 22 20 17 17 18 19 19 18 18 17 16 16 16 16 16 17 18 19 20 20 21 21 21 21 22
5 4 3 4 5 4 4 4 4 5 2 3 4 3 3 4 5 6 6 4 4 5 5 5 6 6 6 7 7 8 9 5 3 5 5 6 6 7 8 10 10 10 12 14 17 20 22 22 22 21 20 19 19 19 20 21 22 22 21 22 23 21 17 16 18 19 19 19 19 18 17 16 16 16 16 16 17 18 19 20 21 21 22 21 22 23
6 5 2 3 4 4 3 4 3 2 2 1 2 3 4 6 7 6 7 8 7 6 6 6 7 7 7 8 9 10 9 8 6 6 6 6 7 7 8 10 10 11 13 14 17 21 23 22 21 21 20 20 20 20 21 22 23 22 22 24 23 19 16 17 19 18 19 19 19 17 16 16 16 16 17 17 17 18 19 20 20 21 21 20 19 18
3 2 2 1 3 3 4 4 4 5 4 2 3 5 8 12 11 8 8 10 9 8 7 7 9 9 7 8 10 10 9 8 7 7 7 7 7 7 8 9 11 12 13 15 17 21 23 22 21 21 20 20 21 21 21 22 22 22 24 24 21 18 17 18 19 19 20 19 18 17 16 17 17 18 18 18 18 19 20 19 18 19 18 16 14 13
3 3 3 2 3 6 6 6 8 12 11 8 7 8 9 10 10 8 9 10 9 9 8 7 9 11 9 7 8 8 9 8 7 6 7 6 6 7 7 8 9 11 13 14 17 21 23 21 19 19 19 19 21 22 22 22 22 23 24 22 19 17 17 18 19 20 20 19 18 17 17 17 18 19 19 19 19 20 20 19 18 18 17 16 13 13
3 4 4 7 10 9 8 9 14 17 18 16 15 15 13 11 11 10 8 8 8 10 9 8 9 11 10 8 8 10 9 7 5 5 5 5 6 6 7 7 9 12 15 17 19 21 22 19 17 18 19 19 21 23 23 22 23 23 22 20 19 18 18 18 19 20 20 19 18 18 18 18 19 20 20 19 18 17 16 16 16 16 17 17 16 14
4 6 8 10 12 10 9 12 17 19 19 16 13 12 13 15 18 17 12 9 9 9 10 9 9 9 9 9 9 10 9 6 5 5 5 5 5 5 6 7 10 12 15 18 19 20 21 20 19 20 21 21 22 22 22 22 22 21 20 19 19 18 19 20 21 21 21 20 19 19 20 20 19 19 20 19 17 15 16 16 14 13 15 19 20 18
6 7 9 10 11 9 9 13 18 19 18 16 15 15 16 17 20 22 18 13 11 11 11 11 8 7 8 9 8 8 8 6 5 5 5 5 4 5 6 8 11 14 16 17 19 20 22 22 22 22 23 23 22 21 21 21 21 19 18 18 18 18 20 21 22 22 22 21 21 21 21 21 20 19 19 19 18 18 21 21 19 17 19 22 23 22
7 8 9 9 8 8 10 15 17 15 13 15 19 22 22 20 20 21 18 15 14 14 13 14 12 7 7 8 8 7 7 6 5 5 5 4 4 6 7 9 11 12 14 17 18 20 22 23 23 23 23 22 21 20 20 20 20 18 17 17 18 18 20 21 21 21 22 22 22 22 22 22 20 16 13 12 14 17 22 25 25 24 23 24 25 24
7 8 9 7 7 10 13 16 15 11 12 16 22 25 23 20 19 19 17 15 16 16 14 14 14 10 7 7 7 8 8 6 4 5 5 3 5 7 10 12 12 12 14 16 18 18 21 22 22 21 22 21 20 19 19 19 19 18 17 17 18 19 20 21 21 21 22 22 23 23 22 20 16 12 10 9 9 12 16 21 25 26 25 24 24 23
Wind_Direction
301 102 92 73 54 16 3 355 4 17 357 54 97 112 262 265 228 132 101 62 354 292 260 243 276 278 271 266 230 186 187 208 226 229 231 231 227 227 227 228 227 231 237 231 238 246 243 235 230 231 234 236 240 243 245 247 251 254 257 260 262 265 267 267 267 267 268 267 267 268 270 271 271 272 274 277 278 277 277 277 278 279 280 280 279 281
268 92 74 21 14 360 354 2 129 23 359 41 70 115 177 255 274 142 176 70 42 301 259 209 285 275 266 266 227 166 185 209 216 218 224 224 222 222 223 226 226 228 231 231 240 244 240 236 230 229 233 236 240 245 248 251 255 259 262 263 265 267 268 268 267 266 267 267 267 265 266 267 266 266 269 272 273 274 275 276 276 276 277 277 276 278
81 84 73 31 44 69 75 104 247 91 65 44 93 242 223 247 291 237 195 175 88 288 283 321 297 278 268 261 223 176 195 215 214 213 219 219 217 217 217 221 221 223 228 229 231 229 230 235 235 234 236 238 242 245 250 254 257 259 260 261 263 264 265 267 267 267 266 267 267 266 265 264 264 265 267 269 270 272 274 275 276 276 275 275 276 277
97 92 53 25 178 166 90 95 262 186 106 43 78 242 246 66 293 244 151 146 214 252 300 308 289 272 264 254 228 199 203 214 212 216 225 226 225 223 219 218 217 222 226 226 227 219 212 216 225 234 238 242 244 245 247 251 253 255 257 260 263 266 267 268 269 270 269 268 268 269 269 269 269 270 271 273 275 276 277 278 279 280 280 279 280 281
82 75 48 115 178 223 77 126 240 246 151 82 316 287 268 215 264 275 337 318 249 198 283 302 285 262 240 220 222 189 200 225 221 223 232 230 231 231 232 234 228 228 229 227 227 210 196 200 208 221 235 244 247 248 249 251 253 256 260 264 267 269 272 273 275 277 277 274 272 272 274 275 274 274 273 274 277 279 281 284 284 284 286 288 287 288
76 74 166 166 160 219 248 188 339 271 209 163 224 280 290 283 270 277 296 301 269 202 174 317 300 272 138 192 236 152 179 226 213 221 235 231 225 221 230 238 232 230 231 233 237 223 205 211 211 216 231 241 243 247 251 252 252 256 261 266 272 277 280 284 287 287 285 280 275 270 268 271 273 272 271 271 277 282 282 284 285 285 288 290 290 290
86 117 188 182 168 176 204 192 71 263 235 181 155 159 244 279 271 270 266 266 289 303 81 328 293 287 272 252 255 152 215 233 216 227 237 233 224 217 223 233 230 227 226 228 237 238 236 234 226 223 224 227 230 231 239 244 245 253 262 269 276 283 287 292 294 295 291 283 273 266 264 267 270 272 273 276 282 285 282 281 283 284 284 286 290 291
112 145 154 155 170 171 175 146 131 237 257 107 115 181 241 266 266 264 250 246 298 326 284 134 289 283 280 263 222 82 252 239 227 232 234 227 222 221 223 225 224 223 219 219 226 226 230 230 218 209 200 199 204 200 197 199 201 212 231 245 259 276 286 292 294 293 292 284 272 268 269 268 269 271 276 281 283 282 282 281 283 285 283 281 286 291
166 184 133 166 188 189 158 81 117 216 278 47 115 221 254 275 268 254 260 253 337 312 258 138 75 276 272 238 157 186 255 246 235 228 223 215 211 216 219 218 217 216 211 213 220 209 199 197 186 169 153 151 151 148 147 148 153 156 162 163 147 310 301 297 296 294 293 290 279 273 272 272 274 275 278 282 282 281 282 281 282 283 283 280 278 284
187 23 26 257 233 171 87 68 90 245 359 90 142 154 137 125 97 198 276 274 285 280 260 104 37 284 285 265 178 171 238 242 237 231 219 195 188 201 205 205 203 199 197 199 199 187 167 147 134 125 119 117 119 123 125 125 127 126 125 117 98 76 34 347 315 313 304 295 285 276 274 276 278 280 282 282 281 280 280 281 283 282 282 280 274 272
107 68 247 262 341 68 99 85 42 28 88 134 165 181 163 159 140 140 306 327 263 254 201 70 356 281 295 285 194 177 216 206 197 205 187 145 145 169 182 186 181 169 164 168 167 156 132 113 112 115 114 114 112 112 111 108 108 106 107 104 93 84 75 63 47 31 4 315 287 278 277 278 280 282 283 282 281 282 282 282 284 283 282 280 276 270
172 193 188 160 63 119 139 128 82 82 143 177 210 242 244 213 183 195 188 185 254 260 111 93 301 248 254 261 196 184 209 204 200 196 183 163 154 160 166 162 153 150 149 147 145 136 122 114 114 117 118 117 113 109 107 106 104 99 99 99 91 81 73 62 52 40 26 3 320 296 289 285 284 284 283 282 283 284 284 284 284 284 284 283 280 276
194 187 129 119 156 210 207 172 140 143 174 214 218 224 271 279 246 250 246 206 252 283 103 140 301 254 245 251 246 238 223 211 215 211 181 162 157 161 159 149 137 136 143 141 138 135 132 130 129 131 131 124 116 113 111 107 104 99 94 91 84 71 57 44 32 19 10 360 339 320 309 299 294 291 287 286 286 286 286 285 285 284 284 286 285 282
187 149 157 183 163 191 222 219 211 179 174 204 209 225 267 298 320 271 265 271 269 293 121 169 307 273 261 258 239 240 234 202 204 218 190 160 163 162 148 136 132 135 145 144 140 141 140 140 140 139 134 127 121 118 114 108 103 99 91 81 74 59 34 20 14 6 0 351 339 331 323 315 309 303 298 294 291 291 290 287 286 286 285 286 287 287
259 207 174 186 144 160 206 250 336 75 154 183 76 320 269 254 275 272 271 271 287 323 173 172 238 255 267 328 204 235 254 162 189 193 174 182 184 167 129 133 150 151 153 149 143 144 141 141 141 137 131 128 126 122 116 109 104 99 89 76 68 56 31 16 13 10 4 354 347 344 338 332 325 316 310 304 300 297 295 292 289 287 286 285 287 288
262 265 103 90 80 167 186 172 54 211 174 136 86 271 263 258 248 259 321 314 335 319 252 197 245 255 266 286 234 217 224 210 213 199 191 200 192 183 185 175 169 161 155 155 151 143 142 143 141 137 135 133 131 126 118 110 103 97 86 72 63 53 34 20 18 17 11 5 4 2 357 352 346 337 329 317 310 305 299 295 290 286 286 286 287 288
260 267 108 114 148 129 115 158 189 279 267 135 196 222 107 16 4 155 167 63 108 270 255 205 257 271 285 280 235 167 211 218 209 206 203 199 180 178 193 182 171 166 161 164 161 149 148 147 143 142 142 139 135 128 120 110 98 89 78 70 63 52 40 28 24 24 17 14 13 10 9 6 1 356 347 334 324 319 311 303 296 292 290 290 289 288
283 269 146 157 155 106 4 237 147 338 312 225 222 140 110 91 352 175 263 277 204 254 257 204 258 273 275 277 159 125 186 208 196 195 191 188 182 185 189 176 165 165 163 163 159 153 152 150 148 147 142 137 136 130 120 108 94 83 72 67 68 58 49 37 30 27 19 18 17 13 12 10 8 6 359 349 341 336 331 325 317 308 301 297 293 291
270 271 149 114 115 104 142 241 197 133 336 296 276 96 106 247 220 160 251 274 252 267 269 222 268 272 238 234 234 189 195 206 201 187 179 185 188 190 182 168 161 162 164 166 163 160 159 158 155 150 143 141 139 131 121 110 98 93 84 79 83 74 61 43 29 25 19 19 19 13 10 11 13 12 9 5 357 353 351 346 342 334 324 316 308 302
166 277 276 121 324 52 165 223 223 171 128 90 200 157 9 289 269 240 251 290 267 276 286 280 283 260 227 204 215 217 208 207 202 193 198 195 188 185 175 165 168 172 175 175 170 168 166 162 159 155 154 151 143 134 126 119 111 106 103 103 103 95 78 52 28 18 17 16 16 12 4 5 12 14 16 17 9 7 9 4 1 360 354 348 339 325
154 242 270 138 159 253 212 196 222 201 153 163 190 187 176 147 294 278 235 202 260 267 275 280 270 264 241 162 189 214 214 210 204 200 204 194 183 182 175 172 176 178 182 179 172 170 166 162 162 162 160 152 143 138 133 128 123 116 114 121 125 130 132 71 10 355 359 356 358 2 354 355 5 7 10 16 14 14 18 14 12 11 8 6 3 349
177 208 265 228 210 231 212 92 1 329 127 188 204 198 190 164 160 244 246 207 221 257 253 266 278 274 255 140 186 208 206 217 213 201 196 187 185 185 182 182 181 181 183 179 173 170 166 166 167 165 160 153 147 145 143 139 133 125 120 132 167 184 193 230 275 311 319 315 329 344 347 350 358 358 358 4 7 12 16 15 16 18 17 13 8 4
186 246 258 255 247 231 90 65 45 8 7 263 257 220 180 167 188 229 251 223 166 227 283 41 280 277 254 134 194 213 207 232 217 192 191 188 188 187 185 186 183 185 183 176 172 170 169 172 169 164 161 158 156 153 152 150 144 140 136 158 201 208 207 233 257 271 282 282 307 329 342 348 352 351 349 350 353 357 359 0 6 13 17 14 6 359
186 220 244 270 268 174 98 94 101 53 356 225 235 198 180 187 201 231 259 355 203 205 178 165 254 264 281 105 210 266 296 276 226 206 202 187 185 189 187 185 184 185 179 172 171 170 170 171 167 166 167 165 165 162 160 159 154 160 184 204 218 218 214 231 250 249 253 256 283 321 340 345 346 345 343 343 342 339 334 334 339 343 344 346 346 338
194 211 204 286 296 283 152 146 143 132 205 233 233 179 185 145 89 81 159 110 262 213 185 210 257 257 263 75 239 244 250 248 230 223 214 188 185 190 186 185 184 182 177 173 174 173 172 173 173 174 174 171 171 169 166 169 170 186 211 224 228 224 220 229 242 244 246 246 268 318 339 340 339 339 339 337 332 326 321 318 318 315 314 315 314 309
220 229 194 246 284 277 276 293 303 217 168 217 211 172 195 171 146 188 216 193 245 209 175 208 250 259 268 114 167 195 217 243 241 220 218 212 203 196 191 190 185 182 181 178 178 178 177 179 180 179 177 176 175 174 173 178 187 202 216 230 231 223 221 228 232 238 246 248 271 315 328 330 330 330 332 329 322 318 315 313 310 308 307 303 299 295
230 257 227 236 246 248 265 296 83 102 256 256 231 181 188 191 183 195 228 223 231 185 209 234 242 264 277 254 216 211 204 218 229 212 210 220 218 210 203 195 188 186 184 180 181 182 182 184 184 182 180 179 178 178 180 187 196 206 217 229 227 218 219 224 227 236 247 251 273 300 309 314 318 317 315 312 309 309 309 310 310 310 309 304 300 295
198 247 228 232 243 249 270 296 49 220 266 267 261 222 189 182 181 190 216 228 201 106 260 253 224 239 266 267 255 245 224 214 223 220 216 218 216 214 208 196 192 191 185 183 186 187 187 187 186 184 183 182 182 182 185 191 199 206 216 223 220 216 217 220 227 236 241 248 263 278 288 293 297 299 299 298 298 300 303 306 308 305 303 303 300 294
223 261 219 214 254 259 268 280 272 260 260 260 262 252 220 188 181 201 225 231 201 214 254 265 250 240 260 272 272 261 232 215 233 236 231 227 218 210 206 200 198 197 192 191 193 192 191 190 186 186 186 185 185 186 189 195 199 204 213 216 214 215 214 217 227 234 236 244 253 259 269 280 285 288 289 289 291 294 295 298 299 296 297 298 293 288
213 252 142 149 277 276 265 260 257 256 263 266 260 252 239 220 207 213 232 235 226 237 252 265 271 268 268 271 274 275 260 231 248 250 240 235 225 209 207 209 208 203 198 197 197 194 194 191 187 186 186 187 189 189 191 197 201 204 208 210 210 211 211 215 225 231 233 239 247 256 268 275 278 280 282 284 286 287 289 291 292 291 291 290 286 283
216 253 109 120 286 283 257 227 240 242 259 274 271 253 232 229 228 226 236 239 234 245 253 258 267 273 271 268 270 275 276 264 253 248 244 240 228 214 213 216 213 208 202 200 198 194 192 190 188 187 188 190 191 190 193 198 200 202 205 207 206 206 209 216 224 231 236 243 252 261 268 271 271 273 276 278 280 282 283 284 285 285 286 286 285 283
199 248 105 119 278 277 124 97 288 276 266 266 271 259 229 218 223 222 225 222 215 231 249 257 261 262 263 267 271 265 260 253 246 243 247 242 224 215 218 217 213 208 203 199 195 192 191 189 189 189 189 190 189 188 193 197 197 200 204 205 202 204 211 219 226 234 242 251 257 262 265 265 266 268 269 271 273 275 277 278 279 282 283 282 282 282
189 224 183 151 260 267 92 51 311 309 290 267 263 256 225 206 210 219 225 221 214 219 239 242 237 249 263 284 284 265 243 231 236 239 243 237 218 214 218 216 211 206 201 197 192 191 192 190 190 189 187 187 188 190 195 197 198 202 205 203 203 209 218 226 234 242 249 254 257 258 259 259 259 261 263 265 268 271 273 276 278 279 280 280 280 279
183 208 191 177 252 260 41 354 314 289 274 273 326 237 219 199 206 220 230 228 215 207 219 238 250 267 278 277 269 265 257 243 239 244 246 235 217 215 217 216 213 205 199 196 191 190 189 187 186 186 185 185 188 191 195 198 201 205 204 204 207 216 227 235 242 249 251 251 251 252 251 252 254 258 260 262 265 269 271 274 276 278 279 281 280 279
171 192 190 179 251 278 345 343 301 254 229 271 313 251 233 225 223 234 248 247 231 221 228 244 259 264 267 270 265 262 267 266 261 262 254 235 220 220 216 213 211 204 198 195 192 189 186 181 178 178 180 184 189 191 193 199 205 207 208 213 219 226 236 243 246 247 246 244 245 245 246 249 252 256 259 261 264 268 271 274 277 279 280 280 279 279
161 170 182 181 223 274 303 227 239 284 321 314 300 270 140 182 208 255 268 253 235 235 236 240 253 258 262 271 269 263 275 289 281 266 250 229 221 220 214 210 204 199 198 195 190 186 181 177 177 179 181 186 193 197 199 204 210 211 213 219 225 231 239 243 242 241 240 240 241 242 244 247 251 255 259 262 265 268 271 274 277 280 281 281 280 279
159 157 180 214 211 234 261 237 252 309 321 311 293 85 78 139 132 126 291 259 215 232 238 232 248 258 260 264 267 277 16 315 281 261 234 216 212 209 210 209 191 191 196 190 184 179 175 179 184 187 189 192 198 202 203 206 211 213 214 219 225 232 237 239 239 238 238 239 241 242 245 247 251 256 260 263 265 268 272 275 278 280 281 280 280 280
185 193 194 213 219 204 261 275 282 295 298 298 111 88 333 316 116 114 308 288 220 223 229 224 239 251 254 260 266 85 68 281 280 273 218 192 196 195 194 185 167 179 182 171 164 162 169 181 187 189 193 195 199 204 205 209 212 212 214 218 224 231 234 234 236 238 238 240 242 244 247 249 253 258 262 264 266 270 274 277 278 280 280 279 280 281
195 281 220 233 255 198 208 255 250 256 272 62 95 152 100 71 164 157 300 294 226 213 225 217 228 244 254 256 202 135 195 270 283 287 177 157 178 180 172 163 160 168 169 164 165 168 173 181 183 185 191 195 199 205 208 212 212 211 214 220 224 229 232 235 239 240 240 243 246 248 250 252 255 258 262 266 269 271 275 277 278 279 279 279 280 282
174 224 203 226 245 212 195 247 254 251 267 315 142 153 113 107 235 292 294 300 74 192 231 216 229 245 251 239 169 162 223 259 284 303 112 136 155 160 165 168 164 163 158 156 167 174 176 178 179 182 190 198 203 208 211 212 211 212 218 223 226 231 237 242 244 244 244 246 248 250 252 254 256 259 262 266 270 273 275 276 278 278 279 279 279 277
166 199 205 224 243 225 213 244 266 266 273 280 229 146 138 174 244 267 280 312 14 325 249 214 238 250 238 210 179 199 232 246 281 4 114 135 146 154 166 166 158 158 158 160 170 175 175 180 185 190 198 205 208 210 211 211 210 215 222 227 231 238 244 248 248 245 244 246 248 251 253 253 255 260 264 267 271 274 276 277 278 279 279 280 279 276
163 188 204 214 236 234 225 246 275 288 288 276 159 127 138 245 269 274 287 329 335 307 286 240 245 255 247 226 217 234 251 248 138 152 163 164 165 163 163 157 147 146 153 163 174 177 177 183 190 196 204 208 209 210 212 211 213 219 225 230 237 244 249 249 245 242 242 245 248 251 253 254 256 261 265 268 272 274 277 280 281 281 281 279 278 277
164 174 193 194 202 210 214 232 264 296 329 109 119 111 145 220 276 309 317 306 281 285 290 268 251 252 253 248 243 247 255 252 200 192 190 185 178 166 165 167 162 157 159 166 176 183 185 187 192 199 206 208 209 213 213 212 215 221 227 234 242 248 249 244 242 241 243 246 249 252 254 256 260 264 266 269 272 275 279 282 283 284 284 281 279 279
169 177 233 222 182 165 186 206 221 311 346 167 227 293 275 263 288 311 308 300 296 289 285 278 267 256 247 252 261 260 256 250 228 203 194 194 187 173 171 174 170 167 169 173 181 188 191 192 196 203 207 210 212 214 214 215 218 223 230 238 246 248 243 240 241 242 244 249 252 255 258 260 263 266 268 271 275 278 281 284 285 285 284 281 279 276
182 192 304 234 189 219 250 256 289 318 317 240 234 274 284 286 291 291 284 289 292 287 285 283 277 272 256 247 259 264 258 249 230 204 197 197 189 181 179 177 175 175 177 180 186 192 195 198 203 204 207 212 215 216 218 220 220 224 233 242 248 247 240 239 241 243 248 253 255 258 262 265 267 269 272 275 278 279 280 283 285 284 282 278 271 265
18 355 332 316 304 294 287 302 321 323 326 330 311 290 284 285 288 289 286 284 280 280 283 277 273 277 271 253 253 258 253 246 230 209 200 194 187 182 177 175 176 177 178 181 188 194 198 201 205 206 207 213 216 218 222 224 225 230 239 247 250 247 241 240 243 247 252 255 258 261 264 267 270 274 277 280 280 279 279 279 279 279 278 273 263 259
18 2 341 335 333 325 312 323 333 329 326 325 317 307 307 308 307 304 292 279 280 286 285 279 276 278 275 261 251 252 252 240 220 210 197 186 190 186 178 178 180 181 187 191 194 197 198 199 203 207 209 212 217 220 224 226 230 237 244 249 250 247 244 244 246 251 254 256 259 263 265 268 272 277 281 282 281 278 276 275 274 274 272 270 265 261
343 354 355 342 329 314 299 314 327 325 318 314 312 313 319 322 320 317 307 289 285 286 283 279 276 274 274 265 249 250 255 235 206 208 198 184 190 186 180 185 183 185 194 199 199 199 200 201 207 211 213 218 222 224 226 229 235 241 245 248 249 247 246 247 249 252 256 258 260 262 265 270 274 277 281 282 280 276 275 273 269 263 264 269 270 265
336 347 349 334 320 308 307 324 332 328 318 315 317 320 322 323 320 315 310 304 298 293 290 287 274 257 262 267 255 247 250 235 207 201 195 187 188 186 188 191 190 192 197 199 201 204 205 209 214 217 219 225 228 228 229 231 236 241 244 247 248 246 245 247 250 253 257 259 260 262 265 271 274 276 280 282 282 284 285 284 280 273 271 276 279 278
356 354 348 337 328 320 319 326 331 329 317 314 318 319 318 318 315 310 309 310 309 305 304 301 293 271 248 255 257 244 240 235 211 197 196 190 188 189 188 188 188 194 199 201 204 208 211 216 221 223 226 231 233 232 232 234 238 242 244 247 247 245 246 248 249 253 256 256 258 262 266 271 274 274 272 273 279 286 290 294 294 289 283 281 283 285
3 350 341 333 319 306 307 314 322 320 309 308 312 314 315 318 319 314 310 310 307 304 303 299 294 286 264 247 237 232 239 238 199 186 195 195 191 195 196 192 190 192 199 204 206 209 214 219 223 226 231 235 237 237 238 240 243 244 245 247 247 246 247 248 247 249 253 255 258 263 266 268 269 268 266 266 271 279 286 293 297 296 292 289 286 283